Regional Weather Roundup
Issued by NWS Sterling, VA

Home | Current Version | Previous Version | Graphics & Text | Print | Product List | Glossary On
Versions: 1 2 3 4 5 6 7 8 9 10 11 12 13 14 15 16 17 18 19 20 21 22 23 24 25 26 27
000
ASUS41 KLWX 161111
RWRLWX

REGIONAL WEATHER ROUNDUP
NATIONAL WEATHER SERVICE BALTIMORE MD/WASHINGTON DC
600 AM EST SAT DEC 16 2017

Note: "FAIR" indicates few or no clouds below 12,000 feet
with no significant weather and/or obstructions to visibility.
 TC=TEMPERATURE CELSIUS

 * =Non NWS site. Station does not report precipitation (e.g. rain,
    snow, etc.), thunder, or fog.

DCZ001-MDZ009-015-VAZ040>042-051-053>054-161200-
WASHINGTON METRO

CITY           SKY/WX    TMP DP  RH WIND       PRES   REMARKS
WASHINGTON NAT CLEAR     28  20  71 SW8       30.15R WCI  20
DULLES         PTCLDY    24  20  84 S7        30.12R
ANDREWS AFB    CLEAR     24  20  84 SW7       30.12R
FT BELVOIR     CLEAR     22  20  91 CALM      30.14R
QUANTICO       CLOUDY    27  22  81 NW7       30.17R
COLLEGE PARK*  CLEAR     28  21  73 CALM      30.13R
LEESBURG*      CLEAR     32  23  69 SW6       30.11S
MANASSAS*      CLOUDY    21  19  92 S6        30.15R
GAITHERSBURG*  CLEAR     27  19  72 VRB5      30.10R

$$

MDZ006>007-011-014-161200-
BALTIMORE METRO

CITY           SKY/WX    TMP DP  RH WIND       PRES   REMARKS
BWI AIRPORT    PTCLDY    25  22  88 S6        30.11R
MD SCIENCE CTR   N/A     28  22  78 MISG      30.10R
MARTIN STATE   PTCLDY    25  25 100 S3        30.12R
ANNAPOLIS      PTCLDY    27  24  89 W3        30.13R
FORT MEADE*    CLEAR     21  19  93 SW5       30.14R

$$

MDZ012-015-019>023-161200-
MARYLAND EASTERN SHORE

CITY           SKY/WX    TMP DP  RH WIND       PRES   REMARKS
OCEAN CITY     PTCLDY    29  25  85 W6        30.15R
SALISBURY      PTCLDY    27  25  92 W5        30.14R
BAY BRIDGE AP* MOCLDY    32  25  74 MISG      30.13R
CAMBRIDGE*     CLEAR     25  21  86 CALM      30.14R
EASTON*        PTCLDY    27  23  86 SW3       30.17R

$$

MDZ017>025-161200-
SOUTHERN MARYLAND

CITY           SKY/WX    TMP DP  RH WIND       PRES   REMARKS
PATUXENT RIVER CLEAR     28  23  81 SW3       30.15R
ST INIGOES     CLEAR     31  23  72 W6        30.16R
LEONARDTOWN*   CLEAR     28  23  80 W6        30.16R

$$

MDZ003>005-161200-
NORTH CENTRAL MARYLAND

CITY           SKY/WX    TMP DP  RH WIND       PRES   REMARKS
FREDERICK*     CLEAR     32  16  51 S9        30.10S WCI  24
HAGERSTOWN APT CLEAR     31  16  54 SW9       30.03R WCI  23
WESTMINSTER*   CLEAR     28  18  64 SW8       30.04R WCI  20

$$

MDZ501>502-161200-
WESTERN MARYLAND

CITY           SKY/WX    TMP DP  RH WIND       PRES   REMARKS
OAKLAND*       CLOUDY    21  18  86 W17G25    29.91R WCI   7
CUMBERLAND*    MOCLDY    32  19  59 SW7       30.09R

$$

VAZ025>031-161200-
SHENANDOAH VALLEY

CITY           SKY/WX    TMP DP  RH WIND       PRES   REMARKS
WINCHESTER*    CLEAR     32  18  55 SW8       30.06F WCI  25
FRONT ROYAL*   FAIR      32  19  59 S7        30.07F
LURAY*         CLOUDY    32  19  59 S5        30.09R
NEW MARKET*    CLOUDY    27  18  69 CALM      30.07S
STAUNTON*      CLOUDY    27  17  66 SW3       30.11R
WAYNESBORO*    CLOUDY    25  17  70 SW3       30.08R

$$

WVZ021-048>050-054>055-161200-
EASTERN WEST VIRGINIA PANHANDLE

CITY           SKY/WX    TMP DP  RH WIND       PRES   REMARKS
MARTINSBURG    CLEAR     32  15  49 W17       30.05S WCI  21
PETERSBURG*    CLOUDY    32  18  54 SW7       30.04F

$$

VAZ036>039-050-161200-
CENTRAL FOOTHILLS

CITY           SKY/WX    TMP DP  RH WIND       PRES   REMARKS
CHARLOTTESVILL PTCLDY    27  17  66 S3        30.11R
CULPEPER*      FAIR      21  18  87 CALM      30.15R
ORANGE*        CLEAR     19  16  86 CALM      30.14R
GORDONSVILLE*  CLEAR     19  17  92 CALM      30.13S
WARRENTON*     CLOUDY    24  18  78 SE6       30.13R

$$

VAZ055>057-161200-
NORTH AND CENTRAL PIEDMONT

CITY           SKY/WX    TMP DP  RH WIND       PRES   REMARKS
FREDERICKSBRG* CLEAR     27  22  83 SW7       30.15R
STAFFORD*      MOCLDY    26  22  85 W3        30.19R

$$

NCZ024-NYZ072-PAZ021-071-VAZ022-071-161200-
OTHER REGIONAL OBSERVATIONS

CITY           SKY/WX    TMP DP  RH WIND       PRES   REMARKS
NEW YORK CITY  CLEAR     26  16  65 W8        30.00R WCI  18
PHILADELPHIA   PTCLDY    25  19  78 SW10      30.08R WCI  15
PITTSBURGH     LGT SNOW  30  23  75 SW12      30.00R WCI  20
ROANOKE        CLOUDY    34  19  54 NW8       30.15R WCI  27
RICHMOND       CLEAR     31  18  58 SW3       30.17R
RALEIGH        PTCLDY    25  21  85 CALM      30.21R

$$

ANZ530>537-161200-
MARINE OBSERVATIONS

STATION/POSITION TIME  TEMP    WIND        PRES
                       AIR SEA DIR/SP/G
                 (UTC) (F)     (DEG/KT/KT) (MB)
THOMAS PT LIGHT  1100   32 42  240/ 11/ 12   N/A
BALT KEY BRIDGE  1048   29     220/ 12/ 14 1019.5R
COVE POINT       1048   32     270/  9/ 12 1021.4R
LEWISETTA        1048   30 38  270/ 10/ 11 1021.5R
SOLOMONS ISLAND  1048   31 45  250/  5/  7 1020.9R
PINEY POINT      1036          280/ 10/ 12   N/A

$$





USA.gov is the U.S. government's official web portal to all federal, state and local government web resources and services.